Location: Chaumontel
(49.1247°N, 2.4324°E)
Time: 11:55:46
(UTC+00:00)

Meteor 1-11 - Pass Details

Date: 03 February 2023
Orbit: 839 x 888 km, 81.2° (Epoch: 21 March)

Event Time Altitude Azimuth Distance (km) Brightness Sun altitude
Rises 17:46:18 0° 174° (S) 3,482 7.5 -9.5°
Reaches altitude 10° 17:48:48 10° 169° (S) 2,546 6.7 -9.9°
Maximum altitude 17:54:24 53° 95° (E) 1,087 4.4 -10.8°
Drops below altitude 10° 18:00:01 10° 20° (NNE) 2,547 6.4 -11.7°
Sets 18:02:30 0° 16° (NNE) 3,484 7.1 -12.1°
